When you browse on this site, cookies collect data to enhance your experience and personalize the content and advertising you see.
Visit our Privacy Policy to learn more. By continuing to use the site, you agree to this use of cookies and data.
  • In Spain
  • List of Countries
  • For 7 days
  • Water Temperature
  • Satellite Maps
  • Weather Map
  • Weather Widgets
  • user-avatar
    Login

    Hourly Weather Yeghegnadzor

    Today, 16 January, Wednesday

    Time Temperature Precipitation Wind Pressure Humidity
    00:00 -4°C° 0 mm 3 mps 648 mmHg 80%
    01:00 -4°C° 0 mm 3 mps 648 mmHg 83%
    02:00 -4°C° 0 mm 3 mps 648 mmHg 85%
    03:00 -2°C° 0 mm 3 mps 648 mmHg 87%
    04:00 -2°C° 0 mm 3 mps 648 mmHg 88%
    05:00 -2°C° 0 mm 3 mps 648 mmHg 89%
    06:00 -2°C° 0 mm 3 mps 648 mmHg 90%
    07:00 -2°C° 0 mm 3 mps 648 mmHg 88%
    08:00 -1°C° 0 mm 3 mps 648 mmHg 86%
    09:00 -1°C° 0 mm 3 mps 648 mmHg 82%
    10:00 0°C° 0 mm 3 mps 647 mmHg 79%
    11:00 +1°C° 0 mm 3 mps 647 mmHg 76%
    12:00 +1°C° 0 mm 4 mps 647 mmHg 73%
    13:00 +2°C° 0 mm 3 mps 646 mmHg 72%
    14:00 +2°C° 0 mm 3 mps 646 mmHg 71%
    15:00 +3°C° 0 mm 2 mps 645 mmHg 69%
    16:00 0°C° 0 mm 3 mps 644 mmHg 67%
    17:00 -1°C° 0 mm 3 mps 644 mmHg 66%
    18:00 -4°C° 0 mm 3 mps 644 mmHg 64%
    19:00 -4°C° 0 mm 3 mps 643 mmHg 62%
    20:00 -4°C° 0 mm 3 mps 643 mmHg 59%
    21:00 -4°C° 0 mm 3 mps 643 mmHg 56%
    22:00 -4°C° 0 mm 3 mps 642 mmHg 58%
    23:00 -4°C° 0 mm 3 mps 642 mmHg 60%

    Tomorrow, 17 January, Thursday

    Time Temperature Precipitation Wind Pressure Humidity
    00:00 -4°C° 0 mm 3 mps 642 mmHg 62%
    01:00 -2°C° 0.1 mm 3 mps 641 mmHg 67%
    02:00 -1°C° 0.1 mm 2 mps 641 mmHg 72%
    03:00 +1°C° 0.1 mm 2 mps 641 mmHg 77%
    04:00 -1°C° 0.2 mm 2 mps 641 mmHg 79%
    05:00 -1°C° 0.2 mm 2 mps 641 mmHg 81%
    06:00 +1°C° 0.2 mm 1 mps 641 mmHg 83%
    07:00 +2°C° 0.2 mm 1 mps 641 mmHg 82%
    08:00 +2°C° 0.2 mm 1 mps 642 mmHg 81%
    09:00 +3°C° 0.2 mm 1 mps 642 mmHg 79%
    10:00 +3°C° 0.1 mm 1 mps 642 mmHg 78%
    11:00 +3°C° 0.1 mm 1 mps 642 mmHg 76%
    12:00 +4°C° 0.1 mm 1 mps 642 mmHg 74%
    13:00 +3°C° 0.1 mm 2 mps 642 mmHg 74%
    14:00 +3°C° 0.1 mm 2 mps 643 mmHg 73%
    15:00 +3°C° 0.1 mm 2 mps 643 mmHg 73%
    16:00 +2°C° 0.1 mm 2 mps 643 mmHg 74%
    17:00 +1°C° 0.1 mm 2 mps 644 mmHg 75%
    18:00 -2°C° 0.1 mm 3 mps 644 mmHg 77%
    19:00 -2°C° 0.1 mm 3 mps 645 mmHg 77%
    20:00 -2°C° 0.1 mm 3 mps 645 mmHg 77%
    21:00 -4°C° 0.1 mm 3 mps 646 mmHg 77%
    22:00 -4°C° 0.1 mm 3 mps 646 mmHg 77%
    23:00 -5°C° 0.1 mm 3 mps 647 mmHg 77%

    Day after tomorrow, 18 January, Friday

    Time Temperature Precipitation Wind Pressure Humidity
    00:00 -4°C° 0.1 mm 2 mps 647 mmHg 77%
    01:00 -4°C° 0.1 mm 2 mps 648 mmHg 77%
    02:00 -4°C° 0.1 mm 2 mps 648 mmHg 77%
    03:00 -4°C° 0.1 mm 2 mps 649 mmHg 77%
    04:00 -5°C° 0 mm 2 mps 649 mmHg 77%
    05:00 -5°C° 0 mm 2 mps 649 mmHg 77%
    06:00 -6°C° 0 mm 2 mps 649 mmHg 76%
    07:00 -3°C° 0 mm 1 mps 650 mmHg 75%
    08:00 -2°C° 0 mm 1 mps 651 mmHg 74%
    09:00 -2°C° 0 mm 1 mps 652 mmHg 73%
    10:00 -1°C° 0 mm 1 mps 652 mmHg 70%
    11:00 0°C° 0 mm 1 mps 652 mmHg 68%
    12:00 -1°C° 0 mm 2 mps 652 mmHg 66%
    13:00 -1°C° 0 mm 2 mps 652 mmHg 66%
    14:00 +1°C° 0 mm 1 mps 651 mmHg 66%
    15:00 +1°C° 0 mm 1 mps 651 mmHg 66%
    16:00 -1°C° 0 mm 1 mps 651 mmHg 68%
    17:00 -3°C° 0 mm 1 mps 652 mmHg 70%
    18:00 -4°C° 0 mm 1 mps 652 mmHg 72%
    19:00 -6°C° 0 mm 1 mps 652 mmHg 72%
    20:00 -6°C° 0 mm 1 mps 652 mmHg 71%
    21:00 -6°C° 0 mm 1 mps 652 mmHg 70%
    22:00 -6°C° 0 mm 1 mps 652 mmHg 69%
    23:00 -7°C° 0 mm 1 mps 652 mmHg 67%

    19 January, Saturday

    Time Temperature Precipitation Wind Pressure Humidity
    00:00 -7°C° 0 mm 1 mps 653 mmHg 66%
    01:00 -7°C° 0 mm 1 mps 653 mmHg 66%
    02:00 -7°C° 0 mm 1 mps 653 mmHg 65%
    03:00 -7°C° 0 mm 1 mps 652 mmHg 64%
    04:00 -7°C° 0 mm 1 mps 652 mmHg 64%
    05:00 -8°C° 0 mm 1 mps 652 mmHg 64%
    06:00 -8°C° 0 mm 1 mps 652 mmHg 63%
    07:00 -7°C° 0 mm 1 mps 653 mmHg 62%
    08:00 -6°C° 0 mm 1 mps 653 mmHg 61%
    09:00 -3°C° 0 mm 1 mps 653 mmHg 60%
    10:00 -2°C° 0 mm 1 mps 653 mmHg 59%
    11:00 -1°C° 0 mm 1 mps 653 mmHg 58%
    12:00 0°C° 0 mm 1 mps 652 mmHg 57%
    13:00 0°C° 0 mm 1 mps 652 mmHg 59%
    14:00 0°C° 0 mm 1 mps 652 mmHg 60%
    15:00 0°C° 0 mm 1 mps 652 mmHg 61%
    16:00 -1°C° 0 mm 1 mps 651 mmHg 62%
    17:00 -3°C° 0 mm 1 mps 651 mmHg 63%
    18:00 -6°C° 0 mm 1 mps 651 mmHg 64%
    19:00 -6°C° 0 mm 1 mps 652 mmHg 60%
    20:00 -6°C° 0 mm 1 mps 652 mmHg 57%
    21:00 -6°C° 0 mm 1 mps 652 mmHg 53%
    22:00 -6°C° 0 mm 1 mps 652 mmHg 51%
    23:00 -6°C° 0 mm 1 mps 652 mmHg 49%

    20 January, Sunday

    Time Temperature Precipitation Wind Pressure Humidity
    00:00 -7°C° 0 mm 1 mps 652 mmHg 47%
    01:00 -7°C° 0 mm 1 mps 652 mmHg 46%
    02:00 -7°C° 0 mm 1 mps 652 mmHg 45%
    03:00 -7°C° 0 mm 1 mps 652 mmHg 44%
    04:00 -7°C° 0 mm 1 mps 652 mmHg 43%
    05:00 -8°C° 0 mm 1 mps 652 mmHg 43%
    06:00 -9°C° 0 mm 2 mps 652 mmHg 42%
    07:00 -7°C° 0 mm 1 mps 653 mmHg 43%
    08:00 -6°C° 0 mm 1 mps 653 mmHg 44%
    09:00 -3°C° 0 mm 1 mps 654 mmHg 45%
    10:00 -2°C° 0 mm 1 mps 654 mmHg 45%
    11:00 -1°C° 0 mm 1 mps 654 mmHg 45%
    12:00 0°C° 0 mm 1 mps 654 mmHg 45%
    13:00 +1°C° 0 mm 1 mps 653 mmHg 47%
    14:00 +1°C° 0 mm 1 mps 653 mmHg 49%
    15:00 +1°C° 0 mm 1 mps 653 mmHg 51%
    16:00 -1°C° 0 mm 1 mps 652 mmHg 53%
    17:00 -3°C° 0 mm 1 mps 652 mmHg 55%
    18:00 -4°C° 0 mm 1 mps 652 mmHg 57%
    19:00 -6°C° 0 mm 1 mps 652 mmHg 55%
    20:00 -6°C° 0 mm 1 mps 653 mmHg 53%
    21:00 -7°C° 0 mm 2 mps 653 mmHg 51%
    22:00 -7°C° 0 mm 2 mps 653 mmHg 49%
    23:00 -7°C° 0 mm 2 mps 653 mmHg 47%

    21 January, Monday

    Time Temperature Precipitation Wind Pressure Humidity
    00:00 -8°C° 0 mm 2 mps 653 mmHg 45%
    01:00 -8°C° 0 mm 2 mps 653 mmHg 43%
    02:00 -8°C° 0 mm 2 mps 653 mmHg 42%
    03:00 -8°C° 0 mm 2 mps 653 mmHg 40%
    04:00 -8°C° 0 mm 2 mps 652 mmHg 40%
    05:00 -8°C° 0 mm 2 mps 652 mmHg 40%
    06:00 -8°C° 0 mm 2 mps 652 mmHg 40%
    07:00 -7°C° 0 mm 2 mps 653 mmHg 42%
    08:00 -4°C° 0 mm 1 mps 653 mmHg 43%
    09:00 -3°C° 0 mm 1 mps 654 mmHg 45%
    10:00 -2°C° 0 mm 1 mps 653 mmHg 45%
    11:00 -1°C° 0 mm 1 mps 653 mmHg 46%
    12:00 0°C° 0 mm 1 mps 653 mmHg 46%
    13:00 0°C° 0 mm 1 mps 653 mmHg 48%
    14:00 0°C° 0 mm 1 mps 652 mmHg 51%
    15:00 +1°C° 0 mm 1 mps 652 mmHg 53%
    16:00 -1°C° 0 mm 1 mps 652 mmHg 55%
    17:00 -3°C° 0 mm 1 mps 651 mmHg 56%
    18:00 -6°C° 0 mm 1 mps 651 mmHg 58%
    19:00 -6°C° 0 mm 1 mps 651 mmHg 56%
    20:00 -6°C° 0 mm 1 mps 651 mmHg 54%
    21:00 -7°C° 0 mm 1 mps 651 mmHg 52%
    22:00 -7°C° 0 mm 1 mps 651 mmHg 52%
    23:00 -7°C° 0 mm 1 mps 651 mmHg 51%
    Show more